sat.trackr.live / text

‹ back to catalog

CO3D 3

NORAD 64900 · 2025-156B

PAYLOAD ACTIVE UNKNOWN

§ Identity

Operator
Country
FR
Launch date
2025-07-26
Launch site
FRGUI
Launch vehicle
Mass (kg)
RCS (m²)

Purposes: earth_obs

External: N2YO · Heavens-Above · Gunter

§ Orbital elements

Epoch: 2026-05-25T03:35:30.242112Z

Period
94.72 min
Inclination
97.4326°
Eccentricity
0.0000630
Mean motion
15.20205663 rev/d
Perigee alt
504.8 km
Apogee alt
505.7 km
Semi-major
6,883.4 km
B*
2.1028e-4
RAAN
224.1741°
Arg perigee
154.5409°
Mean anomaly
205.5857°
Rev number
4,603

§ Raw data

CO3D 31 64900U 25156B   26145.14965558  .00004488  00000+0  21028-3 0  99982 64900  97.4326 224.1741 0000630 154.5409 205.5857 15.20205663 46035

JSON: /api/v1/satellites/64900 · /tle

For live sub-satellite position, see the globe view (requires WebGL).

§ Visibility from observer

Set your observer location to see the next 7 days of passes ≥ 10°. The values pass through the URL so the page stays shareable.

No JS? Fill the form by hand. The geolocation button needs JavaScript.